Hourly Data Report for October 03, 2017

All times are specified in Local Standard Time (LST). Add 1 hour to adjust for Daylight Saving Time where and when it is observed.

PARRY SOUND CCG
ONTARIO

45°20'39.000" N
80°02'39.000" W
176.30 m
6116257
71172
XPC

Download Data

Hourly Data (October 2017)
Hourly Data Report for October 3, 2017
Temp Definition
°C
Dew Point Temp Definition
°C
Rel Hum Definition
%
Wind Dir Definition
10's deg

Wind Spd Definition
km/h
Visibility Definition
km
Stn Press Definition
kPa
Hmdx Definition


Wind Chill Definition


Weather Definition


TIME
00:00 13.0 6.6 65 LegendMM LegendMM   100.63     LegendNANA
01:00 11.0 6.6 75 LegendMM LegendMM   100.66     LegendNANA
02:00 10.6 6.8 77 LegendMM LegendMM   100.68     LegendNANA
03:00 10.8 7.0 77 LegendMM LegendMM   100.67     LegendNANA
04:00 10.6 7.8 83 LegendMM LegendMM   100.66     LegendNANA
05:00 10.7 8.6 87 LegendMM LegendMM   100.68     LegendNANA
06:00 10.7 9.0 89 LegendMM LegendMM   100.70     LegendNANA
07:00 11.1 9.0 87 LegendMM LegendMM   100.69     LegendNANA
08:00 13.4 9.6 77 LegendMM LegendMM   100.71     LegendNANA
09:00 15.3 10.0 71 LegendMM LegendMM   100.69     LegendNANA
10:00 18.2 10.6 61 LegendMM LegendMM   100.63     LegendNANA
11:00 20.0 10.4 54 LegendMM LegendMM   100.63     LegendNANA
12:00 21.7 10.1 48 LegendMM LegendMM   100.59     LegendNANA
13:00 22.7 10.6 46 LegendMM LegendMM   100.51     LegendNANA
14:00 23.1 10.4 45 LegendMM LegendMM   100.46 25   LegendNANA
15:00 23.6 11.2 45 LegendMM LegendMM   100.42 25   LegendNANA
16:00 23.5 11.5 47 LegendMM LegendMM   100.35 26   LegendNANA
17:00 23.5 11.3 46 LegendMM LegendMM   100.30 25   LegendNANA
18:00 22.1 11.9 52 LegendMM LegendMM   100.27     LegendNANA
19:00 21.6 12.4 56 LegendMM LegendMM   100.27     LegendNANA
20:00 21.8 12.9 57 LegendMM LegendMM   100.28 25   LegendNANA
21:00 21.2 12.6 58 LegendMM LegendMM   100.25     LegendNANA
22:00 21.0 11.9 56 LegendMM LegendMM   100.19     LegendNANA
23:00 21.0 11.8 56 LegendMM LegendMM   100.15     LegendNANA

Notes on Data Quality.

Legend

  • E = Estimated
  • M = Missing
  • NA = Not Available
  • ‡ = Partner data that is not subject to review by the National Climate Archives
Date modified: